[[{"header":{"parameterUnit":"m.s-1","parameterCategory":2,"la1":30.2991,"la2":30.254,"lo1":-89.0895,"lo2":-89.0444,"dy":0.0017,"dx":0.0017,"nx":28,"ny":28,"refTime":"2025-04-26T21:00:00:Z","depth":"0","parameterNumber":2,"parameterNumberName":"U-component_of_CURRENTS"},"data":[0,0,0,0,0,0,0,0,0,0,0,0,0,0,0,0,0,0,0,0,0,0,0,0,0,0,0,0,0,0,0,0,0,0,0,0,0,0,0,0,0,0,0,0,0,0,0,0,0,0,0,0,0,0,0,0,0,0,0.3234,0.3234,0,0.3199,0.3198,0.3197,0.3171,0.3171,0.3172,0.3172,0.3068,0.3065,0.3062,0,0,0,0,0,0,0,0,0,0,0,0,0,0.3211,0.3211,0.3234,0.3234,0.3234,0.3199,0.3198,0.3197,0.3171,0.3171,0.3172,0.3172,0.3069,0.3066,0.3062,0,0,0,0,0,0,0,0,0,0,0,0,0,0.3198,0.3212,0.3234,0.3221,0.322,0.3199,0.3198,0.3196,0.3171,0.3171,0.3172,0.3172,0.3071,0.3066,0.3062,0.3024,0,0,0.3048,0.3046,0,0,0,0,0,0,0,0,0.3198,0.3198,0.3223,0.3222,0.3221,0.3195,0.3152,0.3137,0.3171,0.3183,0.3172,0.3172,0.3108,0.31,0.3085,0.302,0.3015,0.3047,0.3045,0.3043,0.3041,0,0,0,0,0,0,0,0.3199,0.3199,0.3214,0.3223,0.3222,0.3194,0.3193,0.3149,0.3138,0.3182,0.3182,0.3187,0.3106,0.309,0.3083,0.3014,0.3047,0.3043,0.3041,0.3039,0.2901,0.29,0,0,0,0,0,0,0.3219,0.32,0.3215,0.3214,0.3217,0.3195,0.3193,0.3198,0.314,0.3133,0.3187,0.3186,0.3097,0.3088,0.3079,0.3012,0.3043,0.3038,0.3036,0.2902,0.2901,0.29,0,0,0,0,0,0,0.3218,0.322,0.3217,0.321,0.3209,0.3196,0.3201,0.3197,0.3182,0.3145,0.3136,0.3177,0.3097,0.3085,0.3024,0.3009,0.3036,0.3032,0.2903,0.2901,0.29,0.2891,0,0,0,0,0,0,0.3218,0.322,0.3215,0.3212,0.321,0.3177,0.3201,0.3196,0.3187,0.3186,0.3133,0.3124,0.3097,0.3031,0.302,0.3003,0.3029,0.2904,0.2902,0.2901,0.2893,0.289,0.2887,0,0,0,0,0,0.3217,0.3196,0.3215,0.3216,0.3209,0.3176,0.317,0.3159,0.3187,0.3153,0.3131,0.3126,0.3013,0.3026,0.3013,0.2995,0.2905,0.2903,0.2901,0.2894,0.289,0.2887,0,0,0,0,0,0,0.3168,0.3192,0.3212,0.3197,0.3184,0.3173,0.3142,0.3161,0.312,0.3121,0.3102,0.3088,0.3035,0.3013,0.3029,0.2951,0.2963,0.2958,0.2962,0.2958,0.2956,0.2976,0.3025,0,0,0,0,0,0.3164,0.3161,0.3174,0.3157,0.315,0.3155,0.3142,0.3143,0.312,0.3104,0.3075,0.3045,0.3016,0.2986,0.2947,0.2893,0.291,0.2877,0.2875,0.2872,0.2881,0.2905,0.2906,0.2893,0.2893,0.2893,0,0,0.3141,0.3155,0.3152,0.3148,0.3137,0.3109,0.3144,0.3116,0.31,0.3097,0.3042,0.3029,0.3,0.2944,0.2919,0.2922,0.288,0.287,0.2868,0.2878,0.2903,0.2904,0.2906,0.2891,0.2892,0.2892,0,0,0.3076,0.3104,0.3071,0.3067,0.3061,0.3064,0.3062,0.3051,0.3044,0.3002,0.3009,0.2991,0.2921,0.2909,0.2896,0.2855,0.2869,0.284,0.2834,0.2856,0.2858,0.2861,0.2871,0.2874,0.2834,0.2834,0.2833,0,0.3039,0.3026,0.3049,0.3019,0.3018,0.3048,0.3013,0.3004,0.2976,0.2984,0.2975,0.2941,0.291,0.289,0.2872,0.285,0.2864,0.2849,0.2856,0.2858,0.286,0.2871,0.2874,0.2833,0.2833,0.2833,0.2833,0,0.2957,0.2951,0.2926,0.2916,0.2907,0.2881,0.2896,0.2886,0.2904,0.2917,0.2904,0.2877,0.287,0.2853,0.2843,0.2846,0.285,0.2856,0.2871,0.2862,0.2872,0.2876,0.2832,0.2832,0.2832,0.2832,0,0,0.287,0.2868,0.2863,0.2862,0.2864,0.2851,0.2835,0.284,0.2862,0.2841,0.2862,0.2821,0.2853,0.2842,0.284,0.285,0.2866,0.2856,0.2857,0.2877,0.2912,0.2866,0.2866,0.288,0.2881,0.2881,0.2909,0,0.2796,0.2745,0.2764,0.2725,0.2708,0.2753,0.2744,0.2765,0.2793,0.2813,0.2836,0.284,0.2835,0.2843,0.2853,0.2876,0.2878,0.2858,0.2908,0.291,0.288,0.2869,0.2747,0.2757,0.2913,0.2914,0.2914,0,0.2717,0.2705,0.2656,0.2678,0.2673,0.2657,0.2702,0.2701,0.2758,0.2787,0.2824,0.285,0.2871,0.2866,0.2904,0.2895,0.2899,0.2909,0.291,0.2877,0.2871,0.2792,0.2759,0.2647,0.2921,0.292,0.292,0,0.2672,0.264,0.2611,0.2612,0.2624,0.2626,0.2642,0.2697,0.2727,0.2788,0.2825,0.2861,0.289,0.291,0.2935,0.2924,0.2981,0.297,0.2927,0.2924,0.2834,0.2821,0.2709,0.2987,0.2987,0.2986,0.2986,0,0.2615,0.2594,0.2591,0.2581,0.2569,0.2597,0.2614,0.265,0.2718,0.2758,0.2815,0.2856,0.2906,0.2946,0.2951,0.2959,0.2998,0.2928,0.293,0.2824,0.281,0.2721,0.2694,0.2987,0.2987,0.2987,0.2987,0,0.2578,0.257,0.2544,0.2546,0.2548,0.2549,0.2598,0.2625,0.2695,0.2752,0.2773,0.287,0.2922,0.2961,0.3004,0.298,0.2888,0.2977,0.2843,0.2828,0.2659,0.2637,0.2454,0.2397,0.2924,0.2923,0.2922,0,0.2554,0.2533,0.2522,0.2511,0.2509,0.2521,0.2536,0.2607,0.2645,0.2753,0.2776,0.2858,0.2901,0.2962,0.2938,0.2935,0.2848,0.281,0.2756,0.2629,0.2606,0.2487,0.2445,0.2629,0.2626,0.2623,0.2621,0,0.252,0.2515,0.2503,0.2475,0.2472,0.2471,0.2498,0.2529,0.2612,0.2659,0.2732,0.2779,0.2848,0.2801,0.2806,0.2791,0.2642,0.2756,0.2659,0.2391,0.2221,0.2174,0.2633,0.2598,0.2601,0.2602,0.2604,0.2605,0.2506,0.2484,0.2462,0.2429,0.2424,0.2401,0.2376,0.2421,0.2454,0.2492,0.2621,0.2632,0.2649,0.2643,0.2612,0.2451,0.2475,0.2348,0.2341,0.2239,0.2137,0.254,0.2489,0.2491,0.2492,0.2493,0.2494,0,0.2473,0.2442,0.2414,0.2358,0.2317,0.2331,0.2328,0.2288,0.2276,0.2348,0.2392,0.2367,0.2308,0.2295,0.2169,0.2044,0.1947,0.1971,0.1771,0.1765,0.2147,0.2088,0.1905,0.1905,0.1905,0.1905,0.1906,0.1906,0.2455,0.2402,0.2368,0.226,0.2218,0.2116,0.2088,0.205,0.2061,0.2018,0.199,0.2029,0.2025,0.1883,0.1721,0.1693,0.1545,0.1435,0.1469,0.1732,0.1765,0.1797,0.1732,0.1477,0.1476,0.0985,0.0981,0.0978]},{"header":{"parameterUnit":"m.s-1","parameterCategory":2,"la1":30.2991,"la2":30.254,"lo1":-89.0895,"lo2":-89.0444,"dy":0.0017,"dx":0.0017,"nx":28,"ny":28,"refTime":"2025-04-26T21:00:00:Z","depth":"0","parameterNumber":3,"parameterNumberName":"V-component_of_CURRENTS"},"data":[0,0,0,0,0,0,0,0,0,0,0,0,0,0,0,0,0,0,0,0,0,0,0,0,0,0,0,0,0,0,0,0,0,0,0,0,0,0,0,0,0,0,0,0,0,0,0,0,0,0,0,0,0,0,0,0,0,0,0.0562,0.0562,0,0.0541,0.054,0.054,0.0514,0.0514,0.0514,0.0513,0.0467,0.0466,0.0465,0,0,0,0,0,0,0,0,0,0,0,0,0,0.0536,0.0537,0.0562,0.0562,0.0562,0.0541,0.054,0.054,0.0514,0.0514,0.0513,0.0513,0.0467,0.0466,0.0465,0,0,0,0,0,0,0,0,0,0,0,0,0,0.0533,0.0537,0.0562,0.0548,0.0547,0.0541,0.054,0.054,0.0514,0.0514,0.0513,0.0513,0.0468,0.0466,0.0465,0.0462,0,0,0.046,0.046,0,0,0,0,0,0,0,0,0.0533,0.0534,0.055,0.0549,0.0547,0.0531,0.0514,0.0513,0.0514,0.0524,0.0513,0.0513,0.0488,0.0485,0.0479,0.046,0.0458,0.046,0.0459,0.0458,0.0458,0,0,0,0,0,0,0,0.0533,0.0534,0.0552,0.055,0.0549,0.0528,0.0527,0.0514,0.0506,0.0523,0.0522,0.0523,0.0487,0.0481,0.0478,0.0458,0.046,0.0459,0.0458,0.0457,0.0428,0.0428,0,0,0,0,0,0,0.0543,0.0535,0.0552,0.0551,0.0541,0.0529,0.0528,0.0535,0.0507,0.0503,0.0523,0.0522,0.0483,0.0479,0.0476,0.0476,0.0459,0.0457,0.0456,0.0428,0.0428,0.0428,0,0,0,0,0,0,0.0543,0.0545,0.0553,0.0543,0.0543,0.053,0.0538,0.0535,0.053,0.0507,0.0503,0.0522,0.0483,0.0478,0.0465,0.0473,0.0456,0.0455,0.0428,0.0428,0.0428,0.0472,0,0,0,0,0,0,0.0542,0.0545,0.0552,0.0545,0.0544,0.0552,0.0539,0.0535,0.0532,0.053,0.0504,0.05,0.0482,0.0468,0.0464,0.0471,0.0454,0.0428,0.0428,0.0428,0.047,0.0474,0.0476,0,0,0,0,0,0.0541,0.0557,0.0553,0.0555,0.0556,0.0553,0.055,0.0538,0.0532,0.0531,0.0514,0.05,0.0467,0.0467,0.0462,0.0469,0.0427,0.0428,0.0428,0.0469,0.0473,0.0476,0,0,0,0,0,0,0.0549,0.0555,0.0551,0.0568,0.0561,0.0549,0.0551,0.0542,0.0528,0.0527,0.0503,0.0497,0.0488,0.0472,0.0473,0.046,0.0445,0.0444,0.0477,0.0481,0.0484,0.0498,0.0453,0,0,0,0,0,0.0555,0.0568,0.0564,0.0576,0.0576,0.0563,0.0561,0.0553,0.0542,0.0536,0.0518,0.05,0.0486,0.0478,0.0462,0.0457,0.044,0.0457,0.0461,0.0463,0.0471,0.0453,0.0455,0.0429,0.0429,0.0429,0,0,0.0561,0.0566,0.0573,0.0578,0.0572,0.058,0.056,0.0562,0.0566,0.0533,0.0531,0.0509,0.0486,0.0479,0.0474,0.0468,0.0461,0.0464,0.0467,0.0473,0.0453,0.0456,0.0458,0.0429,0.0429,0.0429,0,0,0.058,0.0584,0.06,0.0598,0.0598,0.0593,0.0595,0.0586,0.0578,0.0572,0.0551,0.0536,0.0513,0.05,0.049,0.05,0.0476,0.0494,0.0523,0.0505,0.0508,0.0509,0.0488,0.0488,0.0497,0.0497,0.0497,0,0.0586,0.0609,0.0601,0.0614,0.062,0.0602,0.0619,0.061,0.0595,0.0597,0.0577,0.0548,0.0524,0.0523,0.0523,0.0508,0.0493,0.0513,0.051,0.0512,0.0513,0.0491,0.049,0.0499,0.0499,0.0499,0.0499,0,0.0616,0.0632,0.0642,0.0656,0.0657,0.0669,0.066,0.0658,0.0647,0.0639,0.0629,0.0592,0.0578,0.0565,0.0546,0.0546,0.053,0.0516,0.0504,0.0518,0.0494,0.0492,0.0502,0.0502,0.0501,0.0501,0,0,0.064,0.0661,0.0664,0.068,0.0684,0.0692,0.0699,0.0706,0.0725,0.069,0.0703,0.0664,0.0645,0.0632,0.0604,0.0584,0.0571,0.0557,0.0555,0.0542,0.053,0.0535,0.0533,0.0557,0.0557,0.0557,0.0509,0,0.0667,0.0708,0.0706,0.0741,0.0763,0.0751,0.0765,0.0766,0.076,0.0766,0.0722,0.072,0.0671,0.0667,0.0639,0.0594,0.0568,0.0585,0.0514,0.0512,0.0519,0.0533,0.0583,0.0547,0.0507,0.0507,0.0507,0,0.07,0.0726,0.0767,0.0799,0.0807,0.0821,0.085,0.0863,0.0862,0.0857,0.0839,0.0803,0.077,0.0724,0.0649,0.0663,0.0601,0.0556,0.0553,0.0544,0.0514,0.0526,0.0545,0.0509,0.0504,0.0504,0.0504,0,0.0731,0.0768,0.0807,0.0816,0.0846,0.0861,0.088,0.0893,0.0925,0.0919,0.0931,0.0879,0.0863,0.0778,0.0679,0.0665,0.0595,0.0562,0.0505,0.0504,0.0526,0.0528,0.0509,0.0504,0.0504,0.0504,0.0504,0,0.0767,0.0797,0.0826,0.0848,0.0901,0.0905,0.0966,0.0973,0.1005,0.1053,0.0985,0.1007,0.0876,0.0816,0.071,0.0612,0.0616,0.0516,0.0496,0.0542,0.0546,0.0498,0.046,0.0502,0.0503,0.0503,0.0503,0,0.0792,0.081,0.0862,0.0903,0.0918,0.096,0.103,0.1082,0.1094,0.115,0.1148,0.111,0.1039,0.0901,0.0774,0.0669,0.0546,0.0522,0.0583,0.0572,0.0482,0.0444,0.0401,0.0389,0.045,0.045,0.045,0,0.0808,0.0837,0.0904,0.0945,0.0964,0.1029,0.1083,0.1124,0.1189,0.1223,0.1259,0.1202,0.1192,0.1008,0.0822,0.0642,0.0568,0.0549,0.0526,0.0494,0.0436,0.0422,0.0414,0.0566,0.0567,0.0568,0.0569,0,0.0841,0.0866,0.0913,0.0997,0.1058,0.1138,0.1217,0.1283,0.1336,0.1384,0.1446,0.1438,0.1272,0.114,0.0885,0.0748,0.0553,0.0558,0.0514,0.0521,0.0517,0.0491,0.0573,0.0575,0.0574,0.0574,0.0574,0.0573,0.0868,0.0908,0.0973,0.1052,0.113,0.1232,0.131,0.1408,0.1516,0.1601,0.1598,0.1618,0.1418,0.11,0.0918,0.0632,0.0603,0.0544,0.0497,0.0483,0.0488,0.0585,0.0573,0.0572,0.0572,0.0571,0.0571,0,0.0893,0.0943,0.1023,0.1121,0.1212,0.1248,0.1388,0.1478,0.1612,0.1709,0.1774,0.1712,0.1481,0.1194,0.0814,0.0622,0.055,0.0507,0.0504,0.0494,0.0576,0.06,0.061,0.061,0.061,0.061,0.061,0.061,0.0908,0.0979,0.1019,0.1162,0.1239,0.1362,0.1446,0.1585,0.1694,0.1825,0.1866,0.1886,0.1695,0.1072,0.0693,0.0586,0.0478,0.0438,0.0367,0.043,0.043,0.043,0.0446,0.0422,0.0422,0.0345,0.0344,0.0343]}],[{"header":{"parameterUnit":"m.s-1","parameterCategory":2,"la1":30.2991,"la2":30.254,"lo1":-89.0895,"lo2":-89.0444,"dy":0.0017,"dx":0.0017,"nx":28,"ny":28,"refTime":"2025-04-26T21:00:00:Z","depth":"2","parameterNumber":2,"parameterNumberName":"U-component_of_CURRENTS"},"data":[0,0,0,0,0,0,0,0,0,0,0,0,0,0,0,0,0,0,0,0,0,0,0,0,0,0,0,0,0,0,0,0,0,0,0,0,0,0,0,0,0,0,0,0,0,0,0,0,0,0,0,0,0,0,0,0,0,0,0.2457,0.2458,0,0.2489,0.2489,0.2489,0.2493,0.2493,0.2492,0.2492,0.2484,0.2484,0.2484,0,0,0,0,0,0,0,0,0,0,0,0,0,0.2454,0.2453,0.2457,0.2458,0.2459,0.2489,0.2489,0.2489,0.2493,0.2493,0.2492,0.2492,0.2484,0.2484,0.2484,0,0,0,0,0,0,0,0,0,0,0,0,0,0.2465,0.2453,0.2457,0.2466,0.2467,0.2489,0.2489,0.2489,0.2493,0.2493,0.2492,0.2492,0.2484,0.2484,0.2484,0.2486,0,0,0.2483,0.2483,0,0,0,0,0,0,0,0,0.2464,0.2465,0.2464,0.2465,0.2467,0.2489,0.2485,0.2487,0.2493,0.248,0.2492,0.2492,0.2484,0.2483,0.2487,0.2486,0.2485,0.2483,0.2483,0.2483,0.2483,0,0,0,0,0,0,0,0.2463,0.2464,0.2467,0.2464,0.2466,0.2486,0.2487,0.2485,0.248,0.2482,0.2482,0.249,0.2484,0.2487,0.2487,0.2485,0.2483,0.2483,0.2483,0.2483,0.2493,0.2493,0,0,0,0,0,0,0.2461,0.2463,0.2466,0.2469,0.2468,0.2486,0.2487,0.248,0.2481,0.2482,0.249,0.249,0.2488,0.2487,0.2486,0.2491,0.2483,0.2483,0.2483,0.2493,0.2493,0.2494,0,0,0,0,0,0,0.2461,0.2461,0.2465,0.2469,0.2471,0.2486,0.2478,0.2481,0.2495,0.2488,0.2488,0.2504,0.2487,0.2487,0.2489,0.249,0.2483,0.2483,0.2492,0.2493,0.2493,0.2498,0,0,0,0,0,0,0.246,0.246,0.2461,0.2468,0.2471,0.2476,0.2479,0.2481,0.2501,0.2501,0.25,0.2498,0.2487,0.2489,0.2489,0.249,0.2483,0.2492,0.2493,0.2493,0.2497,0.2499,0.25,0,0,0,0,0,0.246,0.2458,0.2461,0.2462,0.2469,0.2477,0.248,0.2489,0.2502,0.2503,0.2505,0.2499,0.2493,0.2489,0.2489,0.249,0.2491,0.2492,0.2493,0.2497,0.2498,0.25,0,0,0,0,0,0,0.2458,0.2459,0.2462,0.2461,0.2469,0.2478,0.2489,0.2499,0.2505,0.2509,0.2503,0.2502,0.2505,0.25,0.2496,0.2496,0.2492,0.2493,0.2495,0.2496,0.2497,0.2501,0.2482,0,0,0,0,0,0.2459,0.2456,0.2462,0.2463,0.2469,0.2484,0.2493,0.2498,0.2504,0.2508,0.2506,0.2507,0.2507,0.2504,0.2502,0.2502,0.2509,0.2503,0.2504,0.2505,0.2509,0.2531,0.2535,0.2496,0.2496,0.2496,0,0,0.2457,0.2461,0.2458,0.2464,0.2474,0.2474,0.2488,0.2502,0.2503,0.2505,0.2507,0.2513,0.251,0.2507,0.2508,0.2503,0.2519,0.2507,0.2507,0.251,0.2532,0.2536,0.254,0.2497,0.2497,0.2497,0,0,0.2447,0.2458,0.2449,0.2459,0.2475,0.2481,0.2488,0.2499,0.2506,0.2511,0.2514,0.2523,0.252,0.2517,0.2516,0.2526,0.2528,0.2526,0.2529,0.2551,0.2554,0.2557,0.2564,0.2568,0.2522,0.2522,0.2522,0,0.2445,0.2433,0.245,0.245,0.2458,0.2484,0.2478,0.249,0.25,0.251,0.251,0.2529,0.2524,0.2531,0.2529,0.2528,0.2538,0.2522,0.2552,0.2556,0.2559,0.2565,0.2569,0.2522,0.2522,0.2522,0.2522,0,0.2424,0.2423,0.2425,0.2427,0.2439,0.2442,0.246,0.2474,0.2492,0.2505,0.2526,0.2527,0.2539,0.2538,0.2533,0.2552,0.2552,0.2555,0.2548,0.2563,0.2569,0.2573,0.2523,0.2523,0.2522,0.2522,0,0,0.2387,0.2402,0.2403,0.2403,0.2427,0.2431,0.2447,0.2464,0.2486,0.2501,0.2524,0.2528,0.2549,0.2551,0.2553,0.2566,0.2589,0.2568,0.2569,0.2573,0.2632,0.2571,0.257,0.2602,0.2603,0.2603,0.2624,0,0.2361,0.2352,0.2367,0.2363,0.2361,0.2398,0.2411,0.244,0.2471,0.2502,0.2528,0.255,0.2548,0.2561,0.2575,0.2595,0.2602,0.2583,0.2618,0.2619,0.2563,0.2573,0.2359,0.2355,0.2628,0.2629,0.2629,0,0.2325,0.2328,0.2315,0.2335,0.2339,0.2344,0.2386,0.2404,0.2465,0.2496,0.2538,0.2565,0.2595,0.2589,0.263,0.2621,0.2624,0.2632,0.2634,0.2579,0.2566,0.2386,0.2352,0.2636,0.2635,0.2635,0.2635,0,0.2285,0.2289,0.2277,0.2284,0.2312,0.2322,0.2345,0.2404,0.2437,0.2504,0.2541,0.2583,0.2616,0.2635,0.2658,0.2649,0.2701,0.269,0.2634,0.2629,0.2454,0.2432,0.2708,0.2707,0.2707,0.2707,0.2707,0,0.2247,0.224,0.226,0.2257,0.2259,0.2296,0.2323,0.2363,0.2435,0.2475,0.2538,0.2576,0.2632,0.2669,0.2673,0.2671,0.2715,0.2635,0.2633,0.2448,0.2427,0.2678,0.2674,0.2708,0.2708,0.2708,0.2708,0,0.2204,0.2214,0.2207,0.2231,0.2239,0.2248,0.231,0.2338,0.2415,0.2471,0.2495,0.259,0.2637,0.2677,0.2716,0.2687,0.269,0.2673,0.2447,0.2417,0.2596,0.2592,0.2605,0.2604,0.2602,0.2601,0.2599,0,0.2179,0.217,0.2186,0.2186,0.2195,0.2221,0.2243,0.2321,0.2358,0.2468,0.2488,0.2569,0.26,0.2646,0.2609,0.2596,0.2666,0.2386,0.2323,0.259,0.2587,0.2586,0.2584,0.2088,0.2083,0.2079,0.2075,0,0.214,0.2148,0.2148,0.2144,0.2155,0.2165,0.2203,0.2232,0.2321,0.2366,0.2427,0.2464,0.251,0.2402,0.2396,0.2364,0.2371,0.2299,0.2638,0.2154,0.2106,0.2102,0.2117,0.2037,0.2041,0.2044,0.2046,0.2047,0.212,0.2106,0.2105,0.2093,0.2102,0.2091,0.2074,0.212,0.2151,0.2182,0.2292,0.2263,0.2272,0.2151,0.2071,0.2001,0.2172,0.206,0.2071,0.2088,0.203,0.1983,0.188,0.1883,0.1885,0.1887,0.1889,0,0.2082,0.2065,0.2052,0.2021,0.1992,0.2021,0.2026,0.1988,0.1972,0.2016,0.2039,0.1864,0.1778,0.1786,0.1608,0.1594,0.1567,0.1532,0.147,0.151,0.1545,0.1458,0.1157,0.1154,0.1152,0.115,0,0,0.2062,0.2022,0.1996,0.1914,0.1893,0.1813,0.1793,0.1751,0.1743,0.1685,0.1636,0.1742,0.1758,0.1449,0.1393,0.124,0.1372,0.1193,0.1785,0.1755,0.1788,0.1858,0.1771,0,0,0,0,0]},{"header":{"parameterUnit":"m.s-1","parameterCategory":2,"la1":30.2991,"la2":30.254,"lo1":-89.0895,"lo2":-89.0444,"dy":0.0017,"dx":0.0017,"nx":28,"ny":28,"refTime":"2025-04-26T21:00:00:Z","depth":"2","parameterNumber":3,"parameterNumberName":"V-component_of_CURRENTS"},"data":[0,0,0,0,0,0,0,0,0,0,0,0,0,0,0,0,0,0,0,0,0,0,0,0,0,0,0,0,0,0,0,0,0,0,0,0,0,0,0,0,0,0,0,0,0,0,0,0,0,0,0,0,0,0,0,0,0,0,0.0446,0.0446,0,0.0427,0.0426,0.0426,0.0407,0.0407,0.0407,0.0407,0.0375,0.0374,0.0374,0,0,0,0,0,0,0,0,0,0,0,0,0,0.0426,0.0426,0.0446,0.0446,0.0446,0.0427,0.0426,0.0426,0.0408,0.0407,0.0407,0.0407,0.0375,0.0374,0.0374,0,0,0,0,0,0,0,0,0,0,0,0,0,0.0422,0.0426,0.0446,0.0435,0.0434,0.0427,0.0426,0.0426,0.0408,0.0407,0.0407,0.0407,0.0376,0.0375,0.0373,0.037,0,0,0.037,0.037,0,0,0,0,0,0,0,0,0.0422,0.0423,0.0437,0.0436,0.0435,0.042,0.0408,0.0407,0.0408,0.0416,0.0407,0.0407,0.039,0.0388,0.0383,0.0369,0.0367,0.037,0.0369,0.0369,0.0369,0,0,0,0,0,0,0,0.0423,0.0423,0.0437,0.0437,0.0436,0.0417,0.0417,0.0407,0.0403,0.0416,0.0414,0.0414,0.0389,0.0384,0.0382,0.0367,0.037,0.0369,0.0368,0.0368,0.0349,0.0349,0,0,0,0,0,0,0.043,0.0424,0.0438,0.0437,0.0429,0.0418,0.0417,0.0424,0.0404,0.0401,0.0415,0.0414,0.0386,0.0383,0.0381,0.0385,0.0369,0.0368,0.0367,0.0349,0.0349,0.0349,0,0,0,0,0,0,0.043,0.0432,0.0439,0.043,0.043,0.0419,0.0426,0.0424,0.0421,0.0403,0.04,0.0415,0.0386,0.0382,0.0376,0.0384,0.0367,0.0366,0.0349,0.0349,0.0349,0.0388,0,0,0,0,0,0,0.043,0.0432,0.0439,0.0431,0.0431,0.0439,0.0427,0.0424,0.0422,0.042,0.0402,0.0399,0.0385,0.0378,0.0375,0.0382,0.0365,0.0349,0.0349,0.0349,0.0387,0.039,0.0392,0,0,0,0,0,0.0429,0.0443,0.044,0.0441,0.0441,0.0439,0.0437,0.0427,0.0422,0.0423,0.0411,0.0399,0.0378,0.0378,0.0374,0.038,0.0348,0.0349,0.0349,0.0385,0.0389,0.0392,0,0,0,0,0,0,0.0437,0.0442,0.0439,0.0453,0.0448,0.0436,0.0439,0.0431,0.0422,0.0422,0.0403,0.0399,0.0395,0.0382,0.0382,0.0375,0.0361,0.036,0.0389,0.0393,0.0395,0.0407,0.0365,0,0,0,0,0,0.0443,0.0455,0.0451,0.0461,0.0462,0.045,0.0448,0.0442,0.0433,0.0429,0.0416,0.0403,0.0394,0.0389,0.0377,0.0376,0.0358,0.0376,0.0379,0.0382,0.0388,0.0368,0.037,0.0351,0.0351,0.0351,0,0,0.0447,0.0452,0.0458,0.0464,0.0459,0.0466,0.0448,0.045,0.0454,0.0427,0.0429,0.0412,0.0395,0.0392,0.0389,0.0383,0.0377,0.0382,0.0385,0.0389,0.0369,0.0371,0.0373,0.0351,0.0351,0.0351,0,0,0.0464,0.0469,0.0484,0.0484,0.0483,0.0479,0.0482,0.0473,0.0468,0.0465,0.0448,0.0436,0.0422,0.0411,0.0404,0.0415,0.0392,0.041,0.0436,0.0417,0.0419,0.042,0.0397,0.0396,0.0413,0.0413,0.0413,0,0.0469,0.049,0.0485,0.0499,0.0505,0.0488,0.0503,0.0497,0.0485,0.0487,0.0471,0.045,0.0431,0.0432,0.0434,0.0422,0.0407,0.0426,0.0421,0.0422,0.0423,0.0399,0.0397,0.0415,0.0415,0.0415,0.0414,0,0.0496,0.0511,0.0521,0.0536,0.0539,0.055,0.0543,0.0542,0.0533,0.0527,0.052,0.049,0.048,0.0469,0.0454,0.0453,0.0439,0.0427,0.0415,0.0427,0.0401,0.0399,0.0418,0.0417,0.0417,0.0416,0,0,0.0513,0.0537,0.054,0.0556,0.0562,0.057,0.0579,0.0586,0.0602,0.0574,0.0585,0.0555,0.0538,0.0528,0.0504,0.0485,0.0469,0.0462,0.046,0.0443,0.0426,0.042,0.0416,0.0457,0.0457,0.0457,0.0405,0,0.0537,0.0575,0.0578,0.061,0.0631,0.0623,0.0637,0.0639,0.0636,0.064,0.0602,0.0602,0.0562,0.0559,0.0532,0.049,0.0465,0.0484,0.0413,0.0411,0.0408,0.0414,0.0427,0.0382,0.0402,0.0401,0.0401,0,0.0564,0.0589,0.0628,0.066,0.0669,0.0684,0.0711,0.0724,0.0723,0.0719,0.0704,0.0674,0.0644,0.0604,0.0533,0.0549,0.0491,0.0449,0.0446,0.0427,0.0401,0.0373,0.0376,0.0397,0.0397,0.0397,0.0398,0,0.0586,0.0624,0.066,0.067,0.0702,0.0717,0.0736,0.075,0.0779,0.0773,0.0784,0.0738,0.0722,0.0644,0.0553,0.0545,0.0469,0.0445,0.0382,0.038,0.037,0.0369,0.0388,0.0388,0.0388,0.0388,0.0389,0,0.0614,0.0642,0.0676,0.0696,0.0746,0.0754,0.081,0.0817,0.0846,0.0887,0.0831,0.0845,0.0733,0.0673,0.0576,0.0478,0.0485,0.0389,0.0369,0.0384,0.0384,0.0381,0.0381,0.0386,0.0387,0.0387,0.0388,0,0.0628,0.065,0.0698,0.0742,0.0759,0.0797,0.0865,0.0911,0.0923,0.097,0.097,0.0932,0.0859,0.0736,0.0616,0.0521,0.0417,0.0376,0.0399,0.0383,0.0331,0.0334,0.03,0.03,0.0299,0.0299,0.0299,0,0.0638,0.0665,0.0733,0.0772,0.0794,0.0856,0.0907,0.0947,0.1004,0.1029,0.1057,0.0999,0.0974,0.0793,0.0624,0.0455,0.0424,0.0343,0.0327,0.034,0.0324,0.0327,0.033,0.0322,0.0322,0.0322,0.0322,0,0.0659,0.0685,0.073,0.0812,0.0871,0.0947,0.1021,0.1077,0.1127,0.1163,0.12,0.1178,0.1012,0.0858,0.0624,0.0502,0.0371,0.0336,0.0347,0.0349,0.0358,0.0343,0.0346,0.0321,0.0321,0.0321,0.0321,0.0321,0.0677,0.0713,0.0778,0.0854,0.0929,0.1023,0.1091,0.1175,0.1263,0.1318,0.1305,0.1267,0.1084,0.0794,0.0596,0.0375,0.0386,0.0294,0.0295,0.0296,0.0314,0.0323,0.0282,0.0282,0.0282,0.0282,0.0282,0,0.0694,0.0742,0.0815,0.091,0.0994,0.1033,0.1157,0.1227,0.1329,0.138,0.1409,0.1211,0.1042,0.0818,0.0508,0.0327,0.0302,0.0249,0.0266,0.0269,0.0271,0.0288,0.0248,0.0247,0.0247,0.0246,0,0,0.0705,0.0769,0.0807,0.0937,0.1012,0.1124,0.1197,0.1299,0.1366,0.1411,0.1389,0.1365,0.1102,0.0867,0.0622,0.0442,0.0392,0.0392,0.044,0.0494,0.0498,0.0317,0.0349,0,0,0,0,0]}],[{"header":{"parameterUnit":"m.s-1","parameterCategory":2,"la1":30.2991,"la2":30.254,"lo1":-89.0895,"lo2":-89.0444,"dy":0.0017,"dx":0.0017,"nx":28,"ny":28,"refTime":"2025-04-26T21:00:00:Z","depth":"4","parameterNumber":2,"parameterNumberName":"U-component_of_CURRENTS"},"data":[0,0,0,0,0,0,0,0,0,0,0,0,0,0,0,0,0,0,0,0,0,0,0,0,0,0,0,0,0,0,0,0,0,0,0,0,0,0,0,0,0,0,0,0,0,0,0,0,0,0,0,0,0,0,0,0,0,0,0.153,0.153,0,0.1582,0.1582,0.1583,0.1631,0.1632,0.1632,0.1633,0.1729,0.1731,0.1733,0,0,0,0,0,0,0,0,0,0,0,0,0,0.1488,0.1489,0.153,0.1531,0.1531,0.1582,0.1582,0.1583,0.1631,0.1632,0.1633,0.1633,0.1729,0.1731,0.1733,0,0,0,0,0,0,0,0,0,0,0,0,0,0.1519,0.1489,0.153,0.1562,0.1565,0.1582,0.1582,0.1583,0.1631,0.1632,0.1633,0.1634,0.1728,0.1731,0.1734,0.1733,0,0,0.1743,0.1744,0,0,0,0,0,0,0,0,0.1517,0.1521,0.1556,0.156,0.1563,0.1601,0.1603,0.1636,0.1631,0.1605,0.1633,0.1634,0.169,0.1696,0.1703,0.1737,0.1741,0.1743,0.1745,0.1746,0.1747,0,0,0,0,0,0,0,0.1515,0.1519,0.155,0.1557,0.1561,0.1579,0.1584,0.1609,0.1642,0.1608,0.1611,0.1618,0.1693,0.17,0.1705,0.1743,0.1743,0.1746,0.1747,0.1749,0.1879,0.188,0,0,0,0,0,0,0.1508,0.1516,0.1548,0.1551,0.1543,0.1579,0.1585,0.1588,0.1641,0.165,0.1617,0.162,0.1694,0.1702,0.1709,0.1793,0.1746,0.1749,0.1751,0.1877,0.1879,0.1881,0,0,0,0,0,0,0.1507,0.151,0.1546,0.1536,0.1542,0.1578,0.1582,0.1588,0.163,0.1648,0.1658,0.1656,0.1695,0.1705,0.177,0.1794,0.175,0.1753,0.1875,0.1878,0.188,0.1908,0,0,0,0,0,0,0.1505,0.1509,0.1528,0.1535,0.1542,0.1584,0.1581,0.1589,0.1631,0.1636,0.1684,0.1691,0.1697,0.1766,0.1773,0.1797,0.1755,0.1873,0.1876,0.1879,0.1905,0.1912,0.1917,0,0,0,0,0,0.1503,0.1519,0.1528,0.1533,0.156,0.1586,0.1592,0.162,0.1632,0.166,0.1696,0.1692,0.1791,0.177,0.1778,0.1804,0.1871,0.1875,0.1879,0.1903,0.191,0.1917,0,0,0,0,0,0,0.1512,0.1525,0.1536,0.1556,0.1583,0.1595,0.1627,0.1639,0.1687,0.1705,0.1718,0.1729,0.1792,0.18,0.1776,0.1852,0.1829,0.1834,0.1844,0.1852,0.1857,0.1846,0.1758,0,0,0,0,0,0.1521,0.1539,0.1554,0.1577,0.1593,0.1616,0.1637,0.1656,0.1688,0.1711,0.1742,0.1777,0.1807,0.1833,0.1863,0.1907,0.1904,0.1929,0.1935,0.194,0.1938,0.196,0.1967,0.1893,0.1893,0.1893,0,0,0.1532,0.1542,0.1555,0.1582,0.1606,0.163,0.1633,0.1676,0.1701,0.1714,0.1777,0.1805,0.1826,0.1875,0.1903,0.1889,0.196,0.1944,0.1948,0.1944,0.1965,0.1972,0.1978,0.1896,0.1895,0.1895,0,0,0.1551,0.1575,0.1594,0.1618,0.1659,0.167,0.1689,0.1724,0.1753,0.1809,0.1821,0.1867,0.1921,0.1933,0.1944,0.2001,0.1992,0.2018,0.2037,0.2059,0.2065,0.207,0.2071,0.2076,0.2018,0.2018,0.2018,0,0.1571,0.1582,0.1608,0.1632,0.1652,0.1689,0.1712,0.1744,0.1799,0.1823,0.1842,0.1919,0.1941,0.1978,0.1999,0.2012,0.202,0.2005,0.2065,0.207,0.2074,0.2074,0.2079,0.202,0.202,0.202,0.2019,0,0.1586,0.1613,0.1631,0.1666,0.1696,0.1728,0.1763,0.181,0.1848,0.1873,0.1942,0.1975,0.2016,0.2032,0.2034,0.2077,0.207,0.2069,0.204,0.2083,0.2081,0.2085,0.2023,0.2022,0.2021,0.2021,0,0,0.1577,0.163,0.164,0.1658,0.1715,0.1735,0.179,0.1834,0.187,0.1935,0.1976,0.2032,0.2057,0.2071,0.2084,0.2104,0.2142,0.2105,0.2105,0.2094,0.2184,0.2036,0.2026,0.2156,0.2157,0.2158,0.2168,0,0.1582,0.1619,0.1646,0.169,0.1708,0.176,0.1801,0.1855,0.1908,0.1965,0.2008,0.2061,0.2069,0.2099,0.2122,0.2144,0.2157,0.2138,0.2155,0.2155,0.2008,0.2027,0.2162,0.2171,0.2172,0.2173,0.2174,0,0.1572,0.1599,0.1638,0.1689,0.1704,0.1743,0.1811,0.1857,0.194,0.1986,0.2048,0.2086,0.2137,0.2136,0.2186,0.218,0.2185,0.2192,0.2192,0.2044,0.2014,0.2123,0.2181,0.2181,0.218,0.218,0.2179,0,0.1524,0.1584,0.1612,0.1634,0.1704,0.1741,0.1788,0.187,0.1916,0.2009,0.2054,0.2117,0.2162,0.2188,0.2213,0.221,0.2253,0.2247,0.2111,0.2101,0.222,0.2214,0.2269,0.2269,0.2269,0.2269,0.2269,0,0.1489,0.1517,0.1601,0.1617,0.1661,0.1724,0.1786,0.1846,0.1936,0.1981,0.2067,0.2102,0.2183,0.2216,0.2224,0.2175,0.2264,0.2107,0.2091,0.2232,0.2228,0.2222,0.2217,0.2269,0.2269,0.2269,0.2269,0,0.1427,0.1482,0.1522,0.1609,0.164,0.1679,0.1785,0.1824,0.1923,0.1985,0.2018,0.2114,0.2147,0.2196,0.2235,0.2171,0.215,0.211,0.2251,0.2246,0.1979,0.1976,0.1947,0.1941,0.1937,0.1933,0.193,0,0.1393,0.141,0.1511,0.1541,0.1587,0.1659,0.1703,0.1811,0.1849,0.1968,0.1978,0.2055,0.2098,0.2031,0.2098,0.2081,0.206,0.2026,0.1998,0.1957,0.1946,0.1949,0.1952,0.1923,0.1922,0.1921,0.192,0,0.1333,0.1387,0.1425,0.1486,0.154,0.1586,0.1657,0.1673,0.178,0.1885,0.1883,0.1887,0.1915,0.1932,0.1932,0.1923,0.2034,0.198,0.1988,0.1961,0.1928,0.1923,0.193,0.1904,0.1906,0.1908,0.1909,0,0.1301,0.1312,0.1373,0.1412,0.1476,0.1485,0.1535,0.1564,0.1611,0.1733,0.1728,0.1806,0.1895,0.185,0.1855,0.1827,0.1795,0.1726,0.1747,0.1765,0.1699,0.1631,0.1493,0,0,0,0,0,0.126,0.1258,0.1289,0.1319,0.1375,0.1409,0.1487,0.1537,0.1638,0.1589,0.1651,0.1664,0.1653,0.1701,0.1635,0.1776,0.181,0.1689,0.1743,0.1819,0.1837,0.1776,0,0,0,0,0,0,0.1231,0.1262,0.1257,0.1231,0.1235,0.1276,0.1322,0.139,0.1369,0.1477,0.1486,0.1557,0.1585,0.1676,0.1604,0.1615,0.161,0.1742,0.1737,0.1809,0.1825,0.184,0.1783,0,0,0,0,0]},{"header":{"parameterUnit":"m.s-1","parameterCategory":2,"la1":30.2991,"la2":30.254,"lo1":-89.0895,"lo2":-89.0444,"dy":0.0017,"dx":0.0017,"nx":28,"ny":28,"refTime":"2025-04-26T21:00:00:Z","depth":"4","parameterNumber":3,"parameterNumberName":"V-component_of_CURRENTS"},"data":[0,0,0,0,0,0,0,0,0,0,0,0,0,0,0,0,0,0,0,0,0,0,0,0,0,0,0,0,0,0,0,0,0,0,0,0,0,0,0,0,0,0,0,0,0,0,0,0,0,0,0,0,0,0,0,0,0,0,0.0351,0.0351,0,0.0344,0.0344,0.0344,0.034,0.0341,0.0341,0.0341,0.0329,0.0329,0.0329,0,0,0,0,0,0,0,0,0,0,0,0,0,0.0328,0.0329,0.0351,0.0351,0.0351,0.0344,0.0344,0.0344,0.034,0.0341,0.0341,0.0341,0.033,0.0329,0.0329,0,0,0,0,0,0,0,0,0,0,0,0,0,0.0331,0.0329,0.0351,0.035,0.0349,0.0344,0.0344,0.0344,0.034,0.0341,0.0341,0.0341,0.033,0.0329,0.0329,0.0322,0,0,0.0327,0.0327,0,0,0,0,0,0,0,0,0.0331,0.0332,0.035,0.035,0.0349,0.0344,0.0332,0.0337,0.034,0.0343,0.0341,0.0341,0.0335,0.0334,0.0331,0.0322,0.0321,0.0327,0.0326,0.0326,0.0326,0,0,0,0,0,0,0,0.0331,0.0332,0.0348,0.035,0.035,0.0338,0.0338,0.0333,0.0337,0.0343,0.0343,0.0343,0.0334,0.0331,0.033,0.0321,0.0327,0.0326,0.0326,0.0326,0.032,0.032,0,0,0,0,0,0,0.0335,0.0332,0.0348,0.0348,0.0341,0.0338,0.0339,0.0345,0.0337,0.0337,0.0343,0.0343,0.0332,0.0331,0.033,0.0342,0.0326,0.0326,0.0325,0.032,0.032,0.032,0,0,0,0,0,0,0.0335,0.0337,0.0348,0.034,0.034,0.0339,0.0345,0.0345,0.0348,0.0338,0.0337,0.0348,0.0332,0.0331,0.0333,0.0341,0.0325,0.0325,0.0319,0.032,0.032,0.0353,0,0,0,0,0,0,0.0334,0.0337,0.0345,0.034,0.0341,0.0351,0.0345,0.0345,0.0349,0.0349,0.0342,0.0341,0.0332,0.0334,0.0332,0.034,0.0324,0.0319,0.0319,0.032,0.0352,0.0355,0.0357,0,0,0,0,0,0.0333,0.0345,0.0346,0.0348,0.0352,0.0351,0.0351,0.0348,0.0349,0.0352,0.0349,0.0341,0.0335,0.0333,0.0332,0.0339,0.0319,0.0319,0.032,0.0351,0.0354,0.0357,0,0,0,0,0,0,0.0338,0.0346,0.0346,0.036,0.0358,0.0351,0.0356,0.0353,0.0353,0.0356,0.0345,0.0343,0.0347,0.0338,0.0337,0.0338,0.0325,0.0325,0.0349,0.0352,0.0355,0.0362,0.0324,0,0,0,0,0,0.0343,0.0356,0.0355,0.0366,0.0367,0.0363,0.0363,0.0362,0.0359,0.036,0.0355,0.035,0.0346,0.0346,0.0339,0.0341,0.0325,0.0344,0.0346,0.0349,0.0353,0.0334,0.0336,0.0321,0.0321,0.0321,0,0,0.0347,0.0354,0.036,0.0368,0.0367,0.0375,0.0363,0.0368,0.0375,0.0358,0.0369,0.0359,0.0348,0.0351,0.0351,0.0346,0.0343,0.0349,0.0351,0.0354,0.0335,0.0336,0.0338,0.0322,0.0322,0.0322,0,0,0.0359,0.0368,0.0381,0.0384,0.0388,0.0387,0.0391,0.0389,0.039,0.0394,0.0385,0.038,0.0375,0.0368,0.0364,0.0376,0.0357,0.0375,0.0395,0.0378,0.0379,0.038,0.0358,0.0357,0.0377,0.0377,0.0377,0,0.0364,0.0383,0.0383,0.0395,0.0403,0.0396,0.0409,0.0408,0.0406,0.0411,0.0402,0.0395,0.0383,0.0386,0.039,0.0382,0.0369,0.0386,0.0382,0.0382,0.0382,0.036,0.0358,0.0379,0.0379,0.0378,0.0378,0,0.0383,0.04,0.0408,0.0425,0.0431,0.0442,0.0442,0.0447,0.0446,0.0445,0.0447,0.0428,0.0425,0.0417,0.0408,0.0408,0.0396,0.0386,0.0375,0.0386,0.0361,0.0359,0.0381,0.0381,0.038,0.038,0,0,0.039,0.0418,0.0422,0.0438,0.045,0.0459,0.0471,0.0482,0.0499,0.0485,0.0497,0.0481,0.0471,0.0465,0.0449,0.0432,0.0417,0.0414,0.0413,0.0396,0.0377,0.0353,0.0347,0.0409,0.0409,0.0408,0.0359,0,0.0407,0.044,0.0448,0.048,0.0498,0.05,0.0517,0.0525,0.0528,0.0537,0.0511,0.0517,0.049,0.0491,0.0469,0.0434,0.0412,0.0431,0.0367,0.0365,0.0344,0.0344,0.0408,0.0357,0.0356,0.0356,0.0355,0,0.0422,0.0446,0.0482,0.0518,0.0527,0.0545,0.0576,0.0592,0.0598,0.06,0.0593,0.0574,0.0551,0.0523,0.0463,0.0478,0.0432,0.0396,0.0394,0.0358,0.0336,0.0344,0.035,0.035,0.0351,0.0351,0.0351,0,0.043,0.0469,0.0503,0.0515,0.0552,0.0571,0.0594,0.0613,0.064,0.0644,0.0655,0.0622,0.061,0.0548,0.0473,0.0471,0.0398,0.0385,0.0315,0.0313,0.0335,0.0335,0.0336,0.0336,0.0336,0.0337,0.0337,0,0.0442,0.0469,0.0514,0.0533,0.0581,0.0598,0.0651,0.0664,0.0694,0.0727,0.0693,0.0698,0.0617,0.0564,0.0487,0.0394,0.0407,0.0318,0.0299,0.035,0.0352,0.0333,0.0333,0.0335,0.0335,0.0336,0.0336,0,0.0439,0.0468,0.0514,0.0566,0.0587,0.0623,0.0695,0.0733,0.0754,0.0791,0.0793,0.0761,0.0692,0.0599,0.0496,0.0419,0.0328,0.0289,0.035,0.0336,0.0249,0.0252,0.0207,0.0206,0.0205,0.0204,0.0203,0,0.0438,0.0462,0.0538,0.0576,0.0604,0.0666,0.0713,0.0759,0.0803,0.0826,0.084,0.079,0.075,0.0587,0.0487,0.0333,0.0306,0.0251,0.0246,0.025,0.0236,0.024,0.0244,0.0202,0.0201,0.0201,0.0201,0,0.0438,0.0471,0.0512,0.0592,0.0652,0.0721,0.079,0.0822,0.087,0.0888,0.0872,0.0788,0.0707,0.0583,0.0464,0.0353,0.0282,0.0239,0.024,0.0235,0.0243,0.0231,0.0236,0.0197,0.0198,0.0198,0.0198,0,0.0442,0.0471,0.0535,0.0603,0.0681,0.0751,0.0791,0.0838,0.0878,0.0897,0.089,0.0801,0.076,0.0594,0.0485,0.0372,0.0338,0.0285,0.0284,0.0286,0.0319,0.0341,0.031,0,0,0,0,0,0.0442,0.0478,0.0542,0.062,0.0699,0.0747,0.083,0.0867,0.0907,0.0895,0.0895,0.0815,0.0653,0.0594,0.0476,0.0459,0.0316,0.0314,0.0254,0.0177,0.0181,0.0203,0,0,0,0,0,0,0.0443,0.05,0.0533,0.0622,0.0677,0.0766,0.0821,0.0853,0.0852,0.087,0.0793,0.0762,0.0616,0.0716,0.0465,0.0434,0.0373,0.0249,0.0246,0.0174,0.0178,0.0182,0.0206,0,0,0,0,0]}]]